JE4YIZ-13 Weather Reports


Display with metric or nautical units.
time (UTC)temp
F
wind
direction
speed
MPH
gust
MPH
rain 1hr
in
rain 24hr
in
rain mn
in
humidity
%
barometer
mb
20260505014611 64 114 2.0 8.0 0.00 0.00 0.00 66 1019.0
20260505014123 64 53 4.0 7.0 0.00 0.00 0.00 67 1019.0
20260505013635 64 82 4.0 8.0 0.00 0.00 0.00 67 1019.1
20260505013123 63 45 5.0 8.0 0.00 0.00 0.00 69 1019.1
20260505012634 63 64 5.0 9.0 0.00 0.00 0.00 69 1019.1
20260505012115 63 116 4.0 9.0 0.00 0.00 0.00 70 1019.1
20260505011626 63 77 5.0 9.0 0.00 0.00 0.00 70 1019.0
20260505011137 63 54 4.0 7.0 0.00 0.00 0.00 71 1019.1
20260505010621 63 302 5.0 7.0 0.00 0.00 0.00 71 1019.1
20260505010134 63 14 4.0 7.0 0.00 0.00 0.00 72 1019.0
20260505005618 63 328 3.0 8.0 0.00 0.00 0.00 73 1019.0
20260505005123 62 56 4.0 8.0 0.00 0.00 0.00 72 1019.0
20260505004656 63 24 2.0 7.0 0.00 0.00 0.00 73 1018.9
20260505004117 62 12 2.0 7.0 0.00 0.00 0.00 74 1018.9
20260505003628 62 139 2.0 8.0 0.00 0.00 0.00 73 1018.8
20260505003114 62 62 5.0 10.0 0.00 0.00 0.00 73 1018.8
20260505002625 62 34 4.0 10.0 0.00 0.00 0.00 72 1018.9
20260505002137 62 317 4.0 7.0 0.00 0.00 0.00 72 1018.8
20260505001621 62 61 3.0 6.0 0.00 0.00 0.00 71 1018.8
20260505001134 62 335 2.0 6.0 0.00 0.00 0.00 72 1018.7
20260505000618 62 9 2.0 6.0 0.00 0.00 0.00 72 1018.7
20260505000112 61 184 2.0 6.0 0.00 0.00 0.00 72 1018.7
20260504235121 61 329 1.0 6.0 0.00 0.00 0.00 71 1018.8
20260504234632 60 128 2.0 6.0 0.00 0.00 0.00 71 1018.9
20260504234117 60 305 2.0 8.0 0.00 0.00 0.00 71 1018.8
20260504233629 60 98 2.0 8.0 0.00 0.00 0.00 71 1018.8
20260504233113 60 96 3.0 5.0 0.00 0.00 0.00 71 1018.8
20260504232623 60 96 2.0 4.0 0.00 0.00 0.00 72 1018.8
20260504232134 60 82 2.0 5.0 0.00 0.00 0.00 72 1018.6
20260504231619 60 82 3.0 5.0 0.00 0.00 0.00 73 1018.5
20260504231125 59 35 2.0 4.0 0.00 0.00 0.00 73 1018.6
20260504230635 59 65 2.0 5.0 0.00 0.00 0.00 74 1018.6
20260504230119 59 147 2.0 5.0 0.00 0.00 0.00 75 1018.5
20260504225610 59 176 1.0 4.0 0.00 0.00 0.00 75 1018.4
20260504225120 58 180 1.0 3.0 0.00 0.00 0.00 77 1018.5
20260504224631 58 158 0.0 3.0 0.00 0.00 0.00 79 1018.5
20260504224116 58 78 1.0 2.0 0.00 0.00 0.00 80 1018.4
20260504223627 57 174 0.0 1.0 0.00 0.00 0.00 82 1018.3
20260504223133 56 174 0.0 4.0 0.00 0.00 0.00 82 1018.3
20260504222616 56 186 1.0 4.0 0.00 0.00 0.00 82 1018.3
20260504222149 56 196 1.0 3.0 0.00 0.00 0.00 83 1018.3
20260504221611 55 179 0.0 3.0 0.00 0.00 0.00 84 1018.4
20260504221122 55 194 1.0 3.0 0.00 0.00 0.00 85 1018.2
20260504220633 54 186 0.0 4.0 0.00 0.00 0.00 86 1018.3
20260504220117 54 205 2.0 4.0 0.00 0.00 0.00 87 1018.2
20260504215648 53 182 1.0 3.0 0.00 0.00 0.00 88 1018.1
20260504215136 53 188 1.0 2.0 0.00 0.00 0.00 88 1018.2
20260504214642 52 187 1.0 3.0 0.00 0.00 0.00 89 1018.2
20260504214153 52 176 1.0 3.0 0.00 0.00 0.00 89 1018.1
20260504213617 51 185 1.0 3.0 0.00 0.00 0.00 90 1017.9
20260504213127 51 186 2.0 3.0 0.00 0.00 0.00 90 1017.9
20260504212611 50 186 1.0 4.0 0.00 0.00 0.00 90 1017.9
20260504212113 50 183 1.0 4.0 0.00 0.00 0.00 90 1017.8
20260504211624 50 195 2.0 3.0 0.00 0.00 0.00 90 1017.7
20260504211110 49 200 2.0 3.0 0.00 0.00 0.00 91 1017.8
20260504210621 49 191 1.0 2.0 0.00 0.00 0.00 91 1017.7
20260504210134 49 168 1.0 1.0 0.00 0.00 0.00 90 1017.7
20260504205620 48 167 0.0 1.0 0.00 0.00 0.00 90 1017.6
20260504205152 48 167 0.0 1.0 0.00 0.00 0.00 90 1017.7
20260504204617 48 167 0.0 1.0 0.00 0.00 0.00 90 1017.7
20260504204110 48 167 0.0 1.0 0.00 0.00 0.00 90 1017.7
20260504203638 48 167 0.0 1.0 0.00 0.00 0.00 90 1017.6
20260504203125 48 168 0.0 1.0 0.00 0.00 0.00 90 1017.5
20260504202611 48 167 0.0 0.0 0.00 0.00 0.00 89 1017.6
20260504202128 48 168 0.0 0.0 0.00 0.00 0.00 89 1017.6
20260504201615 48 167 0.0 0.0 0.00 0.00 0.00 89 1017.5
20260504201128 48 168 0.0 1.0 0.00 0.00 0.00 89 1017.5
20260504200615 48 168 1.0 1.0 0.00 0.00 0.00 90 1017.4
20260504200128 48 168 0.0 1.0 0.00 0.00 0.00 90 1017.5
20260504195615 48 168 0.0 1.0 0.00 0.00 0.00 89 1017.3
20260504195130 49 168 0.0 2.0 0.00 0.00 0.00 89 1017.3
20260504194612 49 168 1.0 2.0 0.00 0.00 0.00 90 1017.2
20260504194125 49 167 1.0 2.0 0.00 0.00 0.00 90 1017.2
20260504193613 48 167 0.0 1.0 0.00 0.00 0.00 89 1017.1
20260504193127 48 167 0.0 1.0 0.00 0.00 0.00 89 1017.0
20260504192634 49 167 0.0 1.0 0.00 0.00 0.00 89 1017.0
20260504192127 49 167 0.0 0.0 0.00 0.00 0.00 89 1017.1
20260504191616 49 167 0.0 1.0 0.00 0.00 0.00 90 1017.1
20260504191129 49 167 0.0 1.0 0.00 0.00 0.00 89 1016.9
20260504190640 49 167 0.0 1.0 0.00 0.00 0.00 89 1016.9
20260504190128 49 167 1.0 1.0 0.00 0.00 0.00 90 1016.8
20260504185618 49 176 0.0 1.0 0.00 0.00 0.00 89 1016.8
20260504185130 49 178 1.0 1.0 0.00 0.00 0.00 89 1016.7
20260504184619 49 178 0.0 1.0 0.00 0.00 0.00 89 1016.8
20260504184132 49 178 1.0 1.0 0.00 0.00 0.00 89 1016.6
20260504183621 49 178 0.0 2.0 0.00 0.00 0.00 89 1016.6
20260504183134 49 179 1.0 2.0 0.00 0.00 0.00 89 1016.5
20260504182617 49 158 0.0 1.0 0.00 0.00 0.00 89 1016.6
20260504182128 49 158 0.0 1.0 0.00 0.00 0.00 89 1016.4
20260504181616 49 158 0.0 0.0 0.00 0.00 0.00 89 1016.5
20260504181130 50 158 0.0 0.0 0.00 0.00 0.00 89 1016.4
20260504180616 50 158 0.0 1.0 0.00 0.00 0.00 89 1016.5
20260504180130 50 158 0.0 1.0 0.00 0.00 0.00 89 1016.4
20260504175616 50 158 1.0 1.0 0.00 0.00 0.00 89 1016.3
20260504175130 50 158 0.0 1.0 0.00 0.00 0.00 89 1016.4
20260504174615 50 158 0.0 1.0 0.00 0.00 0.00 89 1016.3
20260504174126 50 158 0.0 0.0 0.00 0.00 0.00 89 1016.4
20260504173636 50 158 0.0 0.0 0.00 0.00 0.00 88 1016.3
20260504172617 50 158 0.0 0.0 0.00 0.00 0.00 88 1016.2
20260504172130 50 158 0.0 1.0 0.00 0.00 0.00 88 1016.2
20260504171640 50 158 0.0 1.0 0.00 0.00 0.00 88 1016.1
20260504171132 50 158 0.0 2.0 0.00 0.00 0.00 89 1016.1
20260504170616 50 158 1.0 2.0 0.00 0.00 0.00 88 1016.1
20260504170130 50 154 0.0 1.0 0.00 0.00 0.00 88 1016.0
20260504160118 51 154 0.0 1.0 0.00 0.00 0.00 87 1015.8
20260504150637 52 155 0.0 0.0 0.00 0.00 0.00 86 1016.1
20260504150128 52 155 0.0 0.0 0.00 0.00 0.00 86 1016.1
20260504141112 53 154 0.0 1.0 0.00 0.00 0.00 84 1016.0
20260504140644 53 154 0.0 1.0 0.00 0.00 0.00 84 1016.0
20260504140133 53 154 0.0 1.0 0.00 0.00 0.00 85 1016.0
20260504130615 54 148 0.0 0.0 0.00 0.00 0.00 83 1015.8
20260504130129 54 148 0.0 1.0 0.00 0.00 0.00 82 1015.7
20260504120114 55 168 1.0 2.0 0.00 0.04 0.00 80 1014.9
20260504110638 58 155 0.0 1.0 0.00 0.04 0.00 76 1013.9
20260504110153 58 155 0.0 1.0 0.00 0.35 0.00 75 1013.9
20260504100615 61 113 0.0 3.0 0.00 0.35 0.00 69 1013.1
20260504100126 61 139 2.0 3.0 0.00 0.63 0.00 69 1013.2
20260504090141 62 158 2.0 14.0 0.00 0.87 0.00 67 1012.6
20260504081627 64 150 3.0 14.0 0.00 0.87 0.00 64 1012.4
20260504081111 63 181 5.0 14.0 0.00 0.87 0.00 63 1012.4
20260504080612 64 75 4.0 14.0 0.00 0.87 0.00 62 1012.6
20260504080123 64 126 4.0 12.0 0.00 1.93 0.00 63 1012.4
20260504070129 64 98 3.0 19.0 0.00 4.41 0.00 62 1012.0
20260504060113 64 160 6.0 21.0 0.00 6.14 0.00 59 1011.3
20260504050621 66 109 6.0 16.0 0.00 6.14 0.00 52 1010.8
20260504050132 66 110 6.0 13.0 0.00 7.40 0.00 53 1010.8
20260504045616 66 191 5.0 22.0 0.00 7.40 0.00 45 1010.7
20260504045129 66 157 8.0 22.0 0.00 7.40 0.00 46 1010.8
20260504044633 66 181 5.0 17.0 0.00 7.40 0.00 51 1010.7
20260504044120 66 120 3.0 17.0 0.00 7.40 0.00 56 1010.7
20260504043633 66 134 5.0 14.0 0.00 7.40 0.00 54 1010.6
20260504043120 66 186 6.0 17.0 0.00 7.40 0.00 55 1010.5
20260504042628 66 172 6.0 17.0 0.00 7.40 0.00 55 1010.5
20260504042136 67 134 7.0 14.0 0.00 7.40 0.00 54 1010.5
20260504041628 66 120 9.0 18.0 0.00 7.40 0.00 54 1010.4
20260504041111 66 79 6.0 27.0 0.00 7.40 0.00 57 1010.3
20260504040623 66 136 9.0 27.0 0.00 7.40 0.00 56 1010.3
20260504040135 66 136 6.0 16.0 0.00 7.76 0.00 52 1010.2
20260504035621 66 144 6.0 21.0 0.00 7.76 0.00 55 1010.3
20260504035111 66 103 5.0 21.0 0.00 7.76 0.00 56 1010.3
20260504034619 67 139 6.0 17.0 0.00 7.76 0.00 54 1010.3
20260504034130 66 77 5.0 17.0 0.00 7.76 0.00 51 1010.3
20260504033618 67 115 5.0 14.0 0.00 7.76 0.00 53 1010.5
20260504033131 66 165 5.0 15.0 0.00 7.76 0.00 52 1010.3
20260504032618 66 128 6.0 16.0 0.00 7.76 0.00 50 1010.4
20260504032131 65 193 7.0 20.0 0.00 7.76 0.00 50 1010.2
20260504031613 65 138 8.0 20.0 0.00 7.76 0.00 51 1010.2
20260504031126 65 110 7.0 21.0 0.00 7.76 0.00 51 1010.1
20260504030636 65 182 10.0 21.0 0.00 7.76 0.00 50 1010.2
20260504030143 65 179 8.0 22.0 0.00 7.83 0.00 51 1010.1
20260504025635 65 166 7.0 18.0 0.00 7.83 0.00 52 1010.0
20260504025143 66 157 6.0 21.0 0.00 7.83 0.00 51 1010.0
20260504024635 65 154 6.0 21.0 0.00 7.83 0.00 53 1010.0
20260504024122 65 174 7.0 21.0 0.00 7.83 0.00 51 1010.0
20260504023635 65 161 8.0 21.0 0.00 7.83 0.00 51 1009.8
20260504023120 65 184 6.0 16.0 0.00 7.83 0.00 51 1009.9
20260504022614 64 162 6.0 16.0 0.00 7.83 0.00 53 1009.8
20260504022118 64 161 7.0 14.0 0.00 7.83 0.00 51 1009.9
20260504021631 64 124 5.0 19.0 0.00 7.83 0.00 50 1009.9
20260504021117 64 102 6.0 23.0 0.00 7.83 0.00 49 1010.2
20260504020631 64 180 8.0 16.0 0.00 7.83 0.00 50 1010.0
20260504020117 64 122 9.0 24.0 0.00 7.87 0.00 51 1009.7
20260504015630 65 122 5.0 15.0 0.00 7.87 0.00 51 1009.7
20260504015117 65 143 8.0 15.0 0.00 7.87 0.00 51 1009.7